[[{"header":{"parameterUnit":"m.s-1","parameterCategory":2,"la1":30.2991,"la2":30.254,"lo1":-89.0895,"lo2":-89.0444,"dy":0.0017,"dx":0.0017,"nx":28,"ny":28,"refTime":"2024-08-01T09:00:00:Z","depth":"0","parameterNumber":2,"parameterNumberName":"U-component_of_CURRENTS"},"data":[0,0,0,0,0,0,0,0,0,0,0,0,0,0,0,0,0,0,0,0,0,0,0,0,0,0,0,0,0,0,0,0,0,0,0,0,0,0,0,0,0,0,0,0,0,0,0,0,0,0,0,0,0,0,0,0,0,0,0.3752,0.3752,0,0.3803,0.3804,0.3804,0.3789,0.3788,0.3786,0.3785,0.3784,0.3785,0.3786,0,0,0,0,0,0,0,0,0,0,0,0,0,0.3684,0.3685,0.3752,0.3752,0.3753,0.3803,0.3804,0.3804,0.3789,0.3788,0.3786,0.3785,0.3784,0.3785,0.3786,0,0,0,0,0,0,0,0,0,0,0,0,0,0.3722,0.3686,0.3751,0.3751,0.3752,0.3803,0.3804,0.3805,0.3789,0.3787,0.3786,0.3784,0.3784,0.3785,0.3787,0.3828,0,0,0.3791,0.3792,0,0,0,0,0,0,0,0,0.372,0.3725,0.3751,0.3751,0.3752,0.3788,0.378,0.381,0.3789,0.3775,0.3785,0.3784,0.3782,0.3784,0.3797,0.3828,0.3828,0.3791,0.3792,0.3793,0.3793,0,0,0,0,0,0,0,0.3717,0.3723,0.3772,0.3751,0.3752,0.3764,0.3767,0.3786,0.3786,0.3776,0.3775,0.3781,0.3782,0.3796,0.3797,0.3828,0.3791,0.3792,0.3793,0.3794,0.3923,0.3926,0,0,0,0,0,0,0.3711,0.372,0.377,0.3773,0.3732,0.3766,0.377,0.3778,0.3787,0.3787,0.3783,0.3781,0.3794,0.3795,0.3797,0.3867,0.3793,0.3794,0.3795,0.3921,0.3924,0.3926,0,0,0,0,0,0,0.3709,0.3715,0.3768,0.3748,0.3755,0.3769,0.3778,0.378,0.379,0.3792,0.3791,0.3791,0.3793,0.3795,0.3824,0.3865,0.3795,0.3796,0.3918,0.3922,0.3925,0.3993,0,0,0,0,0,0,0.3707,0.3714,0.3723,0.3747,0.3756,0.3806,0.378,0.3782,0.3797,0.3794,0.3799,0.3798,0.3792,0.3822,0.3826,0.3866,0.3797,0.3914,0.3919,0.3924,0.3987,0.3998,0.4008,0,0,0,0,0,0.3705,0.3726,0.3723,0.3729,0.3766,0.3808,0.3814,0.3818,0.3799,0.3818,0.3821,0.3797,0.3855,0.3825,0.3829,0.387,0.3912,0.3918,0.3924,0.3983,0.3996,0.4008,0,0,0,0,0,0,0.3701,0.3727,0.3724,0.3751,0.3779,0.3805,0.3825,0.3823,0.3842,0.3835,0.3825,0.3826,0.3876,0.3866,0.3833,0.3925,0.3883,0.3889,0.3927,0.3939,0.3949,0.3989,0.3798,0,0,0,0,0,0.3705,0.3728,0.3753,0.3777,0.379,0.3807,0.3824,0.3828,0.3846,0.3852,0.3853,0.3867,0.3907,0.3913,0.3943,0.3982,0.4023,0.4015,0.4025,0.4034,0.4071,0.4191,0.4216,0.3945,0.3945,0.3945,0,0,0.371,0.3728,0.3741,0.3778,0.3798,0.3829,0.3814,0.3846,0.3878,0.385,0.3888,0.3907,0.393,0.3985,0.4005,0.3974,0.4126,0.4041,0.4048,0.4082,0.42,0.4226,0.425,0.3949,0.3949,0.3948,0,0,0.3728,0.3749,0.3768,0.3797,0.383,0.3852,0.386,0.3888,0.3907,0.3948,0.3952,0.4006,0.4024,0.4075,0.4098,0.4187,0.4187,0.4176,0.4249,0.4363,0.4387,0.4409,0.4465,0.4491,0.4169,0.4169,0.4169,0,0.3726,0.3758,0.3783,0.3809,0.3843,0.386,0.3895,0.3929,0.3961,0.4007,0.3965,0.4079,0.4085,0.42,0.4226,0.4215,0.4254,0.4192,0.4379,0.4401,0.4422,0.4475,0.4503,0.4173,0.4173,0.4172,0.4172,0,0.3754,0.3785,0.3805,0.3846,0.3888,0.3928,0.3975,0.4022,0.4039,0.4077,0.4184,0.421,0.4287,0.429,0.428,0.4434,0.4403,0.4386,0.4346,0.4453,0.4502,0.453,0.4179,0.4177,0.4176,0.4175,0,0,0.3731,0.3808,0.3811,0.3853,0.3916,0.396,0.4036,0.413,0.4211,0.424,0.4354,0.4423,0.4449,0.4481,0.4486,0.4568,0.4727,0.4533,0.4537,0.4588,0.4948,0.474,0.475,0.4736,0.4742,0.4747,0.4911,0,0.3742,0.3806,0.3842,0.3923,0.3973,0.4038,0.412,0.4212,0.4286,0.4399,0.4467,0.4568,0.4517,0.4566,0.4649,0.4721,0.4809,0.4683,0.484,0.4844,0.4647,0.478,0.4474,0.4579,0.4938,0.4943,0.4946,0,0.3749,0.3803,0.3877,0.4001,0.4029,0.4082,0.4252,0.4327,0.4492,0.4554,0.4669,0.472,0.4863,0.4796,0.4989,0.4905,0.4951,0.4984,0.4991,0.4803,0.4691,0.4537,0.4616,0.4504,0.4989,0.4985,0.4982,0,0.3746,0.3832,0.3903,0.3939,0.4071,0.4138,0.4218,0.4379,0.4488,0.4669,0.477,0.4914,0.5011,0.5106,0.5147,0.5099,0.5334,0.5279,0.514,0.5123,0.49,0.4852,0.4891,0.5454,0.5454,0.5453,0.5453,0,0.3766,0.382,0.3908,0.3957,0.4087,0.4155,0.4318,0.4429,0.4596,0.474,0.4852,0.4994,0.5101,0.5219,0.5238,0.526,0.5417,0.5196,0.5177,0.4905,0.4859,0.4777,0.474,0.5459,0.5458,0.5457,0.5456,0,0.3783,0.3815,0.3927,0.4054,0.4095,0.4202,0.4378,0.4491,0.464,0.4835,0.49,0.511,0.5228,0.5285,0.544,0.5365,0.5244,0.5381,0.5012,0.4944,0.4632,0.4609,0.4524,0.4407,0.5259,0.5255,0.5252,0,0.3809,0.386,0.4009,0.4079,0.4142,0.428,0.4372,0.4515,0.4621,0.4896,0.4982,0.5166,0.5231,0.5339,0.5245,0.5214,0.5131,0.4935,0.4789,0.4607,0.4573,0.445,0.4351,0.4524,0.4515,0.4508,0.4502,0,0.3904,0.3947,0.406,0.4172,0.4265,0.4365,0.4483,0.4552,0.4708,0.4828,0.4967,0.5035,0.5101,0.491,0.4858,0.4817,0.4649,0.4779,0.4729,0.4121,0.3862,0.3737,0.4403,0.4437,0.4444,0.4449,0.4452,0.4455,0.3995,0.4086,0.4191,0.4292,0.4367,0.4377,0.4369,0.4453,0.4528,0.4546,0.478,0.4703,0.4623,0.4467,0.4403,0.4089,0.4202,0.3929,0.3957,0.3882,0.3632,0.4112,0.4026,0.4029,0.4033,0.4036,0.4039,0,0.4058,0.4138,0.4278,0.4329,0.4312,0.435,0.4373,0.4262,0.4189,0.425,0.4246,0.4062,0.3853,0.3761,0.349,0.331,0.3192,0.3232,0.3034,0.3013,0.356,0.3386,0.2987,0.2987,0.2987,0.2988,0.2988,0.2988,0.41,0.4194,0.4241,0.4214,0.4199,0.4024,0.3948,0.3812,0.3762,0.3519,0.334,0.3329,0.335,0.3162,0.2892,0.281,0.2668,0.2459,0.261,0.302,0.3088,0.3153,0.2983,0.2507,0.2506,0.1874,0.187,0.1866]},{"header":{"parameterUnit":"m.s-1","parameterCategory":2,"la1":30.2991,"la2":30.254,"lo1":-89.0895,"lo2":-89.0444,"dy":0.0017,"dx":0.0017,"nx":28,"ny":28,"refTime":"2024-08-01T09:00:00:Z","depth":"0","parameterNumber":3,"parameterNumberName":"V-component_of_CURRENTS"},"data":[0,0,0,0,0,0,0,0,0,0,0,0,0,0,0,0,0,0,0,0,0,0,0,0,0,0,0,0,0,0,0,0,0,0,0,0,0,0,0,0,0,0,0,0,0,0,0,0,0,0,0,0,0,0,0,0,0,0,0.0262,0.0262,0,0.0252,0.0252,0.0251,0.0219,0.0218,0.0217,0.0217,0.0193,0.0193,0.0193,0,0,0,0,0,0,0,0,0,0,0,0,0,0.0236,0.0237,0.0262,0.0262,0.0262,0.0252,0.0251,0.0251,0.0219,0.0218,0.0217,0.0216,0.0193,0.0193,0.0193,0,0,0,0,0,0,0,0,0,0,0,0,0,0.0237,0.0237,0.0262,0.0246,0.0244,0.0252,0.0251,0.0251,0.0219,0.0218,0.0217,0.0216,0.0193,0.0193,0.0192,0.021,0,0,0.0192,0.0192,0,0,0,0,0,0,0,0,0.0237,0.0238,0.0248,0.0247,0.0245,0.0237,0.0233,0.0237,0.0219,0.0227,0.0217,0.0216,0.0208,0.0206,0.0205,0.0209,0.0208,0.0192,0.0192,0.0192,0.0192,0,0,0,0,0,0,0,0.0237,0.0238,0.0257,0.0248,0.0247,0.0233,0.0232,0.0234,0.0221,0.0226,0.0224,0.0225,0.0206,0.0205,0.0204,0.0207,0.0192,0.0192,0.0192,0.0192,0.0238,0.0239,0,0,0,0,0,0,0.0243,0.0239,0.0257,0.0257,0.024,0.0234,0.0233,0.0239,0.0222,0.0218,0.0226,0.0224,0.0205,0.0204,0.0203,0.0251,0.0192,0.0192,0.0192,0.0237,0.0238,0.024,0,0,0,0,0,0,0.0243,0.0245,0.0258,0.0248,0.0249,0.0236,0.0243,0.024,0.0241,0.0222,0.0218,0.0231,0.0205,0.0203,0.0215,0.0249,0.0192,0.0192,0.0235,0.0237,0.0239,0.0329,0,0,0,0,0,0,0.0242,0.0246,0.0256,0.0249,0.0249,0.0276,0.0244,0.024,0.0243,0.024,0.0225,0.0221,0.0204,0.0215,0.0215,0.0247,0.0192,0.0234,0.0236,0.0239,0.0324,0.0334,0.0342,0,0,0,0,0,0.0242,0.0267,0.0256,0.0259,0.0263,0.0278,0.0277,0.0263,0.0245,0.0258,0.0244,0.0222,0.023,0.0217,0.0216,0.0249,0.0233,0.0236,0.0238,0.032,0.0332,0.0342,0,0,0,0,0,0,0.0266,0.0266,0.0254,0.0279,0.0281,0.0273,0.0288,0.0271,0.0271,0.0268,0.024,0.0237,0.0261,0.0242,0.0227,0.0268,0.0228,0.0231,0.029,0.0301,0.0309,0.0343,0.0192,0,0,0,0,0,0.0275,0.0292,0.0287,0.0309,0.0313,0.0299,0.0303,0.0295,0.0291,0.0289,0.0277,0.0268,0.0273,0.0275,0.0274,0.0299,0.0294,0.0318,0.0327,0.0335,0.0361,0.0385,0.0399,0.0249,0.0249,0.0249,0,0,0.029,0.0294,0.0303,0.0315,0.0315,0.0341,0.03,0.0318,0.034,0.0289,0.0318,0.0301,0.0286,0.0313,0.0322,0.0302,0.0371,0.0338,0.0345,0.0368,0.039,0.0405,0.0418,0.0251,0.0251,0.0251,0,0,0.0337,0.0334,0.0365,0.0373,0.0382,0.0378,0.0386,0.0383,0.0384,0.0406,0.0376,0.0387,0.0384,0.039,0.0389,0.0448,0.0416,0.0435,0.0509,0.0533,0.0546,0.0557,0.0556,0.0566,0.044,0.044,0.044,0,0.0352,0.0391,0.0378,0.0411,0.0428,0.04,0.0439,0.0442,0.0443,0.0459,0.0429,0.0452,0.0431,0.048,0.0492,0.0472,0.0466,0.047,0.0546,0.0557,0.0567,0.0563,0.0574,0.0445,0.0444,0.0444,0.0443,0,0.0423,0.0451,0.0475,0.0506,0.0524,0.0554,0.0555,0.0572,0.0563,0.0564,0.0605,0.0583,0.0601,0.0589,0.0556,0.0619,0.0584,0.0554,0.0523,0.0588,0.0579,0.0589,0.0451,0.045,0.0448,0.0447,0,0,0.0455,0.0512,0.0519,0.0552,0.0575,0.0601,0.0644,0.068,0.0724,0.0717,0.0783,0.0773,0.0758,0.0757,0.0722,0.0734,0.0782,0.0676,0.0674,0.0681,0.0817,0.0734,0.0735,0.0761,0.0763,0.0765,0.0777,0,0.0511,0.0594,0.0606,0.0685,0.0726,0.0724,0.0773,0.0801,0.0817,0.0873,0.0861,0.0906,0.0823,0.0842,0.0842,0.0812,0.0813,0.0781,0.0748,0.0747,0.0671,0.0746,0.0718,0.0722,0.0786,0.0788,0.0789,0,0.0573,0.0621,0.0708,0.0781,0.08,0.0841,0.0917,0.096,0.1018,0.1035,0.1071,0.1062,0.1098,0.1012,0.1001,0.0981,0.091,0.0867,0.0866,0.077,0.0683,0.0669,0.0736,0.0594,0.0803,0.0802,0.0801,0,0.0609,0.0692,0.0765,0.0789,0.0866,0.0907,0.0949,0.1009,0.1077,0.1152,0.1221,0.123,0.1279,0.1203,0.1106,0.1061,0.1082,0.1009,0.0864,0.0856,0.0819,0.0804,0.0756,0.0998,0.0998,0.0998,0.0998,0,0.0665,0.0724,0.0788,0.0832,0.0927,0.0959,0.1069,0.111,0.121,0.1338,0.1314,0.1429,0.1332,0.1326,0.1185,0.1071,0.1146,0.0905,0.087,0.0845,0.0832,0.0693,0.0605,0.0998,0.0998,0.0998,0.0998,0,0.0703,0.0742,0.0832,0.0918,0.0949,0.1019,0.1147,0.124,0.1315,0.1491,0.1534,0.1611,0.1605,0.1469,0.1376,0.1199,0.098,0.1001,0.0963,0.0922,0.0611,0.0529,0.0442,0.0392,0.0845,0.0843,0.0842,0,0.0735,0.0788,0.0893,0.0952,0.0994,0.1098,0.1187,0.1282,0.1406,0.1621,0.1735,0.1787,0.1858,0.1666,0.1371,0.1113,0.0962,0.0883,0.0783,0.0616,0.05,0.0441,0.0402,0.0766,0.0764,0.0763,0.0761,0,0.0807,0.084,0.0918,0.1027,0.1121,0.1248,0.1389,0.15,0.1665,0.1829,0.2061,0.2137,0.1959,0.1709,0.1318,0.1124,0.0766,0.0837,0.0702,0.0473,0.0375,0.0302,0.0715,0.0747,0.0749,0.075,0.075,0.0751,0.0861,0.0922,0.1017,0.112,0.1237,0.1405,0.1529,0.1714,0.1939,0.2202,0.2272,0.2392,0.1994,0.1469,0.1198,0.0634,0.0654,0.0442,0.0368,0.0334,0.0249,0.0608,0.0568,0.0568,0.0568,0.0569,0.0569,0,0.0922,0.0998,0.1106,0.1252,0.1396,0.1443,0.1677,0.1829,0.2112,0.2323,0.2507,0.2334,0.1845,0.1338,0.0569,0.0222,0.0136,0.005,-0.0017,-0.0024,0.0335,0.0294,0.0147,0.0147,0.0148,0.0148,0.0148,0.0148,0.0964,0.107,0.1124,0.1358,0.1475,0.1685,0.1824,0.2057,0.2237,0.2465,0.2496,0.2488,0.206,0.0804,-0.0004,-0.0164,-0.0329,-0.0412,-0.0471,-0.0228,-0.0196,-0.0166,-0.0224,-0.0476,-0.0477,-0.0782,-0.0785,-0.0788]}],[{"header":{"parameterUnit":"m.s-1","parameterCategory":2,"la1":30.2991,"la2":30.254,"lo1":-89.0895,"lo2":-89.0444,"dy":0.0017,"dx":0.0017,"nx":28,"ny":28,"refTime":"2024-08-01T09:00:00:Z","depth":"2","parameterNumber":2,"parameterNumberName":"U-component_of_CURRENTS"},"data":[0,0,0,0,0,0,0,0,0,0,0,0,0,0,0,0,0,0,0,0,0,0,0,0,0,0,0,0,0,0,0,0,0,0,0,0,0,0,0,0,0,0,0,0,0,0,0,0,0,0,0,0,0,0,0,0,0,0,0.2847,0.2848,0,0.29,0.29,0.29,0.2906,0.2906,0.2906,0.2906,0.2949,0.295,0.2951,0,0,0,0,0,0,0,0,0,0,0,0,0,0.2762,0.2763,0.2847,0.2848,0.285,0.29,0.29,0.29,0.2906,0.2906,0.2906,0.2906,0.2949,0.295,0.2951,0,0,0,0,0,0,0,0,0,0,0,0,0,0.2799,0.2763,0.2847,0.2864,0.2866,0.29,0.29,0.29,0.2906,0.2906,0.2906,0.2906,0.2948,0.295,0.2951,0.2958,0,0,0.2956,0.2957,0,0,0,0,0,0,0,0,0.2797,0.2801,0.286,0.2863,0.2866,0.2902,0.2886,0.2921,0.2906,0.2884,0.2906,0.2906,0.2937,0.2939,0.2939,0.296,0.2962,0.2956,0.2957,0.2958,0.2958,0,0,0,0,0,0,0,0.2794,0.2799,0.2861,0.2862,0.2865,0.2873,0.2877,0.2892,0.2904,0.2886,0.2888,0.2904,0.2937,0.2938,0.2941,0.2963,0.2956,0.2958,0.2958,0.2959,0.3071,0.3073,0,0,0,0,0,0,0.28,0.2797,0.286,0.2864,0.2838,0.2874,0.2879,0.2885,0.2904,0.2909,0.2904,0.2905,0.2935,0.2939,0.2942,0.3011,0.2958,0.2959,0.296,0.3069,0.3071,0.3073,0,0,0,0,0,0,0.2798,0.2805,0.2858,0.2837,0.2845,0.2876,0.2883,0.2886,0.2914,0.2919,0.2922,0.2932,0.2935,0.294,0.2976,0.3011,0.296,0.2961,0.3066,0.3069,0.3072,0.3111,0,0,0,0,0,0,0.2795,0.2803,0.2816,0.2837,0.2847,0.2889,0.2883,0.2887,0.2925,0.2927,0.2944,0.2946,0.2936,0.2974,0.2977,0.3012,0.2963,0.3064,0.3068,0.3071,0.3107,0.3115,0.3122,0,0,0,0,0,0.2792,0.2814,0.2816,0.2825,0.2861,0.289,0.2895,0.2913,0.2927,0.2938,0.2956,0.2947,0.3001,0.2976,0.298,0.3016,0.3062,0.3067,0.3071,0.3104,0.3114,0.3122,0,0,0,0,0,0,0.2791,0.2818,0.2821,0.2851,0.2873,0.2894,0.2921,0.2933,0.2955,0.2964,0.2966,0.2969,0.3014,0.3016,0.2989,0.3063,0.3034,0.3039,0.3058,0.3067,0.3074,0.3108,0.2964,0,0,0,0,0,0.2796,0.2815,0.2839,0.2866,0.2883,0.2906,0.2927,0.2935,0.2959,0.297,0.2982,0.3006,0.3033,0.305,0.3065,0.3104,0.3134,0.3134,0.3141,0.3147,0.3181,0.3263,0.3281,0.3088,0.3088,0.3088,0,0,0.2797,0.2825,0.283,0.2867,0.2891,0.292,0.2918,0.2956,0.2981,0.2972,0.3016,0.303,0.305,0.3088,0.311,0.3096,0.3213,0.3153,0.3158,0.3189,0.327,0.3289,0.3306,0.3091,0.3091,0.309,0,0,0.2813,0.2843,0.2857,0.2887,0.2932,0.2949,0.2968,0.2997,0.3012,0.3057,0.3057,0.3101,0.3137,0.3155,0.3172,0.3237,0.3247,0.3239,0.3306,0.3384,0.3401,0.3416,0.3454,0.3472,0.3245,0.3245,0.3245,0,0.2822,0.2845,0.2868,0.2904,0.2934,0.2969,0.2993,0.3022,0.3056,0.3086,0.3082,0.3171,0.3178,0.3244,0.3265,0.3256,0.329,0.3263,0.3394,0.341,0.3425,0.346,0.348,0.3247,0.3247,0.3247,0.3246,0,0.2838,0.2874,0.29,0.2949,0.2975,0.3017,0.3052,0.3085,0.3123,0.3162,0.3239,0.3255,0.3314,0.332,0.3317,0.342,0.3404,0.3389,0.3369,0.3447,0.3478,0.3498,0.3251,0.325,0.3249,0.3248,0,0,0.2825,0.2893,0.2904,0.2933,0.3007,0.3028,0.3084,0.3146,0.322,0.3259,0.3335,0.3397,0.3428,0.3452,0.3447,0.3519,0.3635,0.3508,0.3511,0.3541,0.3794,0.3623,0.3627,0.3645,0.3649,0.3653,0.3763,0,0.2839,0.2894,0.2922,0.2984,0.302,0.307,0.3133,0.3196,0.327,0.3354,0.34,0.3494,0.3471,0.3517,0.3577,0.3642,0.3695,0.3606,0.372,0.3723,0.3559,0.3648,0.334,0.3399,0.3782,0.3785,0.3788,0,0.284,0.2887,0.2934,0.3017,0.3039,0.3085,0.3196,0.326,0.3392,0.3458,0.355,0.3596,0.3708,0.3668,0.3826,0.3775,0.3794,0.3827,0.3831,0.3681,0.3591,0.3391,0.3421,0.3821,0.3818,0.3816,0.3814,0,0.2816,0.2891,0.2928,0.2961,0.3065,0.31,0.3168,0.3303,0.3377,0.3547,0.3636,0.3751,0.3821,0.3905,0.3959,0.3923,0.4109,0.4058,0.391,0.3896,0.3663,0.3621,0.4157,0.4157,0.4157,0.4156,0.4156,0,0.2828,0.2862,0.2927,0.2969,0.3038,0.3109,0.3206,0.3323,0.3463,0.3581,0.3701,0.3786,0.3895,0.3983,0.4017,0.4032,0.4159,0.3952,0.3931,0.3661,0.362,0.4009,0.3991,0.416,0.4159,0.4159,0.4158,0,0.2794,0.2848,0.2902,0.3001,0.3037,0.3092,0.3209,0.3296,0.3473,0.3618,0.3683,0.3849,0.398,0.4046,0.4171,0.4091,0.414,0.4091,0.3742,0.3676,0.3854,0.3837,0.3962,0.3957,0.3953,0.395,0.3947,0,0.2781,0.2815,0.2904,0.2944,0.2993,0.3066,0.3138,0.3294,0.34,0.3642,0.3722,0.387,0.3908,0.4012,0.3956,0.3964,0.4064,0.3643,0.3505,0.3877,0.3845,0.3833,0.3821,0.3212,0.3204,0.3197,0.3191,0,0.2773,0.2804,0.2832,0.2909,0.2978,0.3021,0.3143,0.3193,0.3396,0.3506,0.3637,0.3673,0.3758,0.3588,0.3583,0.3546,0.3623,0.3493,0.403,0.3285,0.3172,0.3139,0.3152,0.3128,0.3135,0.3139,0.3143,0.3145,0.2744,0.272,0.2766,0.2821,0.2916,0.2958,0.2944,0.3053,0.3124,0.3241,0.3389,0.3355,0.3363,0.3171,0.3075,0.3001,0.3237,0.3081,0.3103,0.3132,0.3002,0.2885,0.2763,0.2767,0.277,0.2773,0.2776,0,0.265,0.2634,0.2681,0.2748,0.2809,0.2883,0.2936,0.2865,0.2856,0.297,0.2995,0.2717,0.2592,0.2639,0.2411,0.2367,0.2355,0.2274,0.2243,0.2307,0.2363,0.2194,0.1741,0.1737,0.1734,0.1731,0,0,0.2586,0.2536,0.2521,0.2591,0.2669,0.2666,0.2619,0.252,0.2518,0.2401,0.2364,0.2515,0.2574,0.2148,0.2062,0.1867,0.208,0.179,0.2624,0.2656,0.2708,0.2833,0.2644,0,0,0,0,0]},{"header":{"parameterUnit":"m.s-1","parameterCategory":2,"la1":30.2991,"la2":30.254,"lo1":-89.0895,"lo2":-89.0444,"dy":0.0017,"dx":0.0017,"nx":28,"ny":28,"refTime":"2024-08-01T09:00:00:Z","depth":"2","parameterNumber":3,"parameterNumberName":"V-component_of_CURRENTS"},"data":[0,0,0,0,0,0,0,0,0,0,0,0,0,0,0,0,0,0,0,0,0,0,0,0,0,0,0,0,0,0,0,0,0,0,0,0,0,0,0,0,0,0,0,0,0,0,0,0,0,0,0,0,0,0,0,0,0,0,0.013,0.013,0,0.0115,0.0115,0.0114,0.0088,0.0087,0.0087,0.0087,0.0059,0.0059,0.0058,0,0,0,0,0,0,0,0,0,0,0,0,0,0.0105,0.0106,0.013,0.013,0.013,0.0115,0.0115,0.0114,0.0088,0.0087,0.0087,0.0087,0.0059,0.0059,0.0058,0,0,0,0,0,0,0,0,0,0,0,0,0,0.0104,0.0106,0.013,0.0116,0.0115,0.0115,0.0115,0.0114,0.0088,0.0087,0.0087,0.0086,0.0059,0.0059,0.0058,0.0065,0,0,0.0056,0.0056,0,0,0,0,0,0,0,0,0.0104,0.0105,0.0118,0.0117,0.0116,0.0104,0.0096,0.0098,0.0088,0.0096,0.0087,0.0086,0.0074,0.0073,0.0069,0.0063,0.0062,0.0056,0.0056,0.0056,0.0055,0,0,0,0,0,0,0,0.0105,0.0105,0.0122,0.0118,0.0117,0.0101,0.01,0.0096,0.0087,0.0096,0.0094,0.0095,0.0073,0.0069,0.0068,0.0062,0.0056,0.0056,0.0055,0.0055,0.0058,0.0058,0,0,0,0,0,0,0.0112,0.0106,0.0123,0.0122,0.0111,0.0102,0.0101,0.0107,0.0087,0.0084,0.0096,0.0094,0.0071,0.0069,0.0067,0.0085,0.0056,0.0055,0.0055,0.0058,0.0058,0.0059,0,0,0,0,0,0,0.0112,0.0114,0.0123,0.0114,0.0115,0.0103,0.011,0.0107,0.0106,0.0088,0.0084,0.0098,0.007,0.0068,0.007,0.0083,0.0055,0.0054,0.0057,0.0058,0.0058,0.0113,0,0,0,0,0,0,0.0111,0.0114,0.012,0.0115,0.0115,0.0133,0.011,0.0107,0.0108,0.0106,0.0089,0.0085,0.007,0.0071,0.0069,0.0081,0.0054,0.0056,0.0057,0.0058,0.0111,0.0115,0.012,0,0,0,0,0,0.0111,0.0129,0.0121,0.0123,0.0125,0.0134,0.0132,0.012,0.0109,0.0116,0.0102,0.0086,0.0074,0.0071,0.0069,0.0081,0.0056,0.0057,0.0058,0.0109,0.0114,0.0119,0,0,0,0,0,0,0.0124,0.0127,0.0119,0.0137,0.0137,0.013,0.0138,0.0127,0.0121,0.012,0.0096,0.0092,0.0095,0.0082,0.0079,0.0083,0.0061,0.0062,0.01,0.0106,0.011,0.014,0.0053,0,0,0,0,0,0.013,0.0143,0.014,0.0156,0.0158,0.0147,0.0148,0.0142,0.0137,0.0134,0.0122,0.0108,0.0098,0.0098,0.0086,0.0096,0.0082,0.01,0.0105,0.0109,0.0131,0.0126,0.0133,0.0062,0.0062,0.0062,0,0,0.0137,0.0144,0.0149,0.0159,0.0158,0.0174,0.0147,0.0158,0.0171,0.0133,0.0147,0.0124,0.0103,0.0108,0.0109,0.0101,0.0116,0.011,0.0114,0.0134,0.0128,0.0135,0.0142,0.0063,0.0062,0.0062,0,0,0.0169,0.0168,0.019,0.0195,0.0203,0.0199,0.0205,0.0202,0.0199,0.0209,0.0179,0.0172,0.0161,0.015,0.0141,0.0167,0.0137,0.0154,0.0208,0.0203,0.0209,0.0214,0.0184,0.0187,0.0161,0.0161,0.0161,0,0.0177,0.0208,0.0198,0.0223,0.0237,0.0214,0.0244,0.0239,0.0236,0.0243,0.0223,0.021,0.0185,0.0195,0.0199,0.0179,0.0163,0.0189,0.021,0.0215,0.022,0.0188,0.019,0.0163,0.0163,0.0163,0.0163,0,0.0225,0.0249,0.0266,0.029,0.0301,0.0325,0.032,0.0327,0.0319,0.0313,0.032,0.0288,0.0285,0.0265,0.0241,0.0259,0.023,0.0213,0.02,0.0231,0.0194,0.0195,0.0167,0.0166,0.0166,0.0165,0,0,0.0252,0.0292,0.03,0.0328,0.0342,0.0363,0.0382,0.0401,0.0431,0.0407,0.0443,0.0406,0.0386,0.0376,0.0338,0.0331,0.033,0.0292,0.0291,0.0269,0.0303,0.0253,0.0248,0.0317,0.0318,0.0319,0.0257,0,0.0296,0.0362,0.0368,0.043,0.0464,0.0456,0.0486,0.0495,0.0497,0.0523,0.0482,0.0502,0.0428,0.0439,0.0413,0.0372,0.034,0.0348,0.0272,0.027,0.0227,0.0251,0.0268,0.0213,0.0258,0.0258,0.0258,0,0.0344,0.0386,0.0456,0.0516,0.0531,0.0564,0.0617,0.0643,0.0656,0.0662,0.0656,0.0626,0.0617,0.055,0.048,0.049,0.0399,0.0347,0.0343,0.0286,0.0223,0.0193,0.0213,0.0259,0.0259,0.0259,0.0259,0,0.0384,0.0449,0.0514,0.0533,0.0591,0.0627,0.0661,0.0687,0.0743,0.0763,0.0815,0.076,0.0774,0.067,0.0549,0.0523,0.0464,0.0412,0.0266,0.026,0.0257,0.025,0.0341,0.0341,0.0341,0.0341,0.0342,0,0.0436,0.0489,0.0542,0.0584,0.0669,0.0688,0.0785,0.0805,0.0874,0.0974,0.0902,0.0963,0.081,0.075,0.0602,0.0453,0.0499,0.0288,0.0252,0.0272,0.0267,0.0298,0.0294,0.0339,0.034,0.034,0.034,0,0.0478,0.0509,0.059,0.0665,0.0694,0.076,0.0881,0.0966,0.1013,0.1147,0.1173,0.1137,0.1053,0.0874,0.0711,0.0543,0.0395,0.0312,0.0331,0.0298,0.0169,0.0168,0.0149,0.0147,0.0145,0.0144,0.0143,0,0.0508,0.0554,0.0654,0.0713,0.0755,0.0856,0.0948,0.1027,0.1141,0.1266,0.1353,0.1295,0.1257,0.0977,0.0688,0.041,0.0373,0.0224,0.0167,0.0188,0.0155,0.0157,0.0159,0.0171,0.0171,0.017,0.0169,0,0.0569,0.0604,0.0676,0.0794,0.0897,0.1029,0.1169,0.1276,0.1407,0.1507,0.1614,0.1584,0.1308,0.1015,0.062,0.0429,0.0272,0.0196,0.025,0.0214,0.0203,0.0172,0.0175,0.0163,0.0164,0.0164,0.0164,0.0165,0.0617,0.0676,0.0772,0.089,0.1016,0.1202,0.1322,0.1477,0.1648,0.1791,0.1762,0.17,0.1386,0.0848,0.0539,0.0204,0.0208,0.0075,0.008,0.0085,0.0095,0.0082,0.002,0.0019,0.0019,0.0019,0.0019,0,0.0677,0.0755,0.0867,0.1024,0.1184,0.1246,0.1478,0.159,0.178,0.1852,0.1881,0.1558,0.1231,0.0879,0.0376,0.0073,0.0062,-0.0025,0.0034,0.0042,0.0049,0.006,-0.0027,-0.0028,-0.0029,-0.003,0,0,0.0713,0.0829,0.0894,0.1146,0.1273,0.1492,0.1631,0.1759,0.1836,0.1864,0.1808,0.1704,0.1305,0.0933,0.0538,0.0257,0.0215,0.0194,0.0261,0.0386,0.0396,0.0133,0.0161,0,0,0,0,0]}],[{"header":{"parameterUnit":"m.s-1","parameterCategory":2,"la1":30.2991,"la2":30.254,"lo1":-89.0895,"lo2":-89.0444,"dy":0.0017,"dx":0.0017,"nx":28,"ny":28,"refTime":"2024-08-01T09:00:00:Z","depth":"4","parameterNumber":2,"parameterNumberName":"U-component_of_CURRENTS"},"data":[0,0,0,0,0,0,0,0,0,0,0,0,0,0,0,0,0,0,0,0,0,0,0,0,0,0,0,0,0,0,0,0,0,0,0,0,0,0,0,0,0,0,0,0,0,0,0,0,0,0,0,0,0,0,0,0,0,0,0.1519,0.152,0,0.1571,0.1571,0.1572,0.1617,0.1618,0.1618,0.1619,0.169,0.1691,0.1693,0,0,0,0,0,0,0,0,0,0,0,0,0,0.1497,0.1497,0.1519,0.152,0.152,0.1571,0.1571,0.1572,0.1617,0.1618,0.1618,0.1619,0.1689,0.1691,0.1693,0,0,0,0,0,0,0,0,0,0,0,0,0,0.1523,0.1497,0.1519,0.1549,0.1552,0.157,0.1571,0.1572,0.1617,0.1618,0.1619,0.1619,0.1689,0.1691,0.1693,0.1691,0,0,0.1699,0.17,0,0,0,0,0,0,0,0,0.1522,0.1524,0.1544,0.1547,0.155,0.1588,0.159,0.1613,0.1617,0.1592,0.1619,0.162,0.1657,0.1662,0.167,0.1694,0.1697,0.17,0.1701,0.1702,0.1702,0,0,0,0,0,0,0,0.152,0.1522,0.154,0.1544,0.1548,0.1572,0.1577,0.1594,0.162,0.1595,0.1598,0.1603,0.1659,0.1668,0.1672,0.1698,0.17,0.1702,0.1703,0.1704,0.1824,0.1826,0,0,0,0,0,0,0.151,0.152,0.1538,0.1541,0.1537,0.1572,0.1577,0.1575,0.162,0.1627,0.1603,0.1605,0.1664,0.1669,0.1674,0.1756,0.1702,0.1704,0.1705,0.1822,0.1824,0.1826,0,0,0,0,0,0,0.1509,0.1511,0.1536,0.1532,0.1537,0.1571,0.157,0.1576,0.1627,0.1626,0.1633,0.1652,0.1664,0.1671,0.1723,0.1756,0.1705,0.1707,0.182,0.1823,0.1825,0.1866,0,0,0,0,0,0,0.1508,0.151,0.1529,0.1531,0.1537,0.1576,0.1569,0.1576,0.1626,0.1632,0.167,0.1674,0.1665,0.172,0.1725,0.1758,0.1708,0.1817,0.1821,0.1824,0.1862,0.187,0.1876,0,0,0,0,0,0.1507,0.1519,0.153,0.1533,0.1554,0.1578,0.1585,0.1611,0.1629,0.1659,0.1682,0.1676,0.1747,0.1723,0.1729,0.1763,0.1816,0.182,0.1824,0.1859,0.1868,0.1876,0,0,0,0,0,0,0.152,0.1525,0.1536,0.1551,0.1579,0.1586,0.1618,0.1638,0.1681,0.1696,0.1698,0.1704,0.1762,0.1762,0.1737,0.181,0.1781,0.1787,0.1806,0.1815,0.1822,0.182,0.171,0,0,0,0,0,0.153,0.1543,0.1556,0.1574,0.159,0.1616,0.1638,0.1658,0.1683,0.1705,0.1728,0.1755,0.1777,0.1798,0.1817,0.1858,0.1874,0.1886,0.1893,0.1899,0.1904,0.197,0.1983,0.1841,0.1841,0.184,0,0,0.1535,0.1546,0.1552,0.158,0.1603,0.1624,0.1633,0.1678,0.17,0.1705,0.176,0.1786,0.1796,0.1837,0.1864,0.1846,0.1948,0.1904,0.1909,0.1911,0.1975,0.1989,0.2001,0.1843,0.1843,0.1842,0,0,0.1545,0.157,0.1584,0.161,0.1654,0.1664,0.1688,0.1723,0.1753,0.1803,0.1809,0.1858,0.1898,0.1905,0.1912,0.1975,0.1986,0.1993,0.2025,0.2089,0.2101,0.2112,0.2146,0.2159,0.1993,0.1994,0.1994,0,0.1556,0.1569,0.1597,0.1621,0.1637,0.1686,0.1703,0.1738,0.1789,0.1812,0.1832,0.1914,0.1924,0.1965,0.1984,0.199,0.2025,0.1986,0.2098,0.2109,0.2119,0.2151,0.2166,0.1996,0.1996,0.1996,0.1995,0,0.1572,0.1592,0.1607,0.1642,0.1669,0.1699,0.1735,0.1786,0.1832,0.1859,0.194,0.1972,0.2025,0.2034,0.2025,0.2103,0.2104,0.21,0.2071,0.2135,0.2166,0.218,0.2,0.1999,0.1998,0.1997,0,0,0.156,0.1604,0.1615,0.163,0.1681,0.1703,0.175,0.1796,0.1836,0.1917,0.1979,0.2029,0.2082,0.2095,0.2114,0.2158,0.2252,0.2166,0.2168,0.2192,0.2392,0.221,0.2208,0.2281,0.2284,0.2287,0.2381,0,0.1564,0.1593,0.1616,0.1651,0.1663,0.1713,0.1746,0.1803,0.186,0.1941,0.2013,0.2087,0.2096,0.2146,0.22,0.2249,0.2294,0.2226,0.2333,0.2336,0.216,0.222,0.2296,0.2392,0.2395,0.2397,0.2399,0,0.1565,0.1586,0.1607,0.1642,0.1656,0.1693,0.1759,0.1802,0.1907,0.1953,0.2057,0.2132,0.2241,0.2239,0.2373,0.2341,0.2374,0.2397,0.2402,0.2226,0.218,0.2318,0.2425,0.2423,0.2421,0.2419,0.2417,0,0.1526,0.1574,0.1589,0.1605,0.1658,0.1694,0.1743,0.1821,0.1868,0.1997,0.2067,0.2194,0.2314,0.2379,0.2455,0.2439,0.2581,0.2562,0.2422,0.241,0.2527,0.2514,0.2644,0.2644,0.2644,0.2643,0.2643,0,0.1485,0.1505,0.1588,0.1596,0.1631,0.1693,0.1753,0.18,0.1914,0.1977,0.2106,0.2195,0.2367,0.2474,0.2494,0.2503,0.2627,0.2434,0.2426,0.254,0.2529,0.2536,0.2523,0.2647,0.2646,0.2645,0.2645,0,0.1401,0.146,0.1475,0.156,0.1605,0.1632,0.1754,0.1795,0.1914,0.2014,0.2077,0.2266,0.24,0.2506,0.2627,0.2555,0.2561,0.2525,0.2639,0.2636,0.2337,0.2325,0.2384,0.2378,0.2373,0.237,0.2366,0,0.1346,0.1353,0.1441,0.1458,0.1499,0.1583,0.1636,0.177,0.1823,0.2027,0.2071,0.2278,0.238,0.2422,0.2521,0.2539,0.2504,0.2475,0.2396,0.2325,0.2314,0.2309,0.2303,0.2359,0.2358,0.2356,0.2355,0,0.1228,0.1275,0.1273,0.1334,0.1394,0.1457,0.1566,0.1613,0.1777,0.1912,0.2025,0.2102,0.2252,0.2344,0.238,0.2378,0.247,0.2425,0.2434,0.236,0.2296,0.2288,0.2288,0.2339,0.2341,0.2343,0.2344,0,0.1135,0.1099,0.1138,0.1173,0.1245,0.132,0.1395,0.1503,0.1599,0.1838,0.1878,0.2069,0.2251,0.2261,0.2282,0.2276,0.2239,0.2134,0.2158,0.2177,0.2058,0.1943,0.1878,0,0,0,0,0,0.1056,0.1016,0.1002,0.1033,0.1101,0.1185,0.1338,0.1431,0.1633,0.1659,0.1765,0.1877,0.1957,0.2061,0.2017,0.217,0.2232,0.2102,0.2119,0.2249,0.2267,0.2143,0,0,0,0,0,0,0.0999,0.0973,0.0949,0.0934,0.0957,0.1049,0.1158,0.129,0.1333,0.1536,0.1614,0.1728,0.186,0.1969,0.1975,0.1995,0.1955,0.221,0.2203,0.2238,0.2255,0.227,0.2149,0,0,0,0,0]},{"header":{"parameterUnit":"m.s-1","parameterCategory":2,"la1":30.2991,"la2":30.254,"lo1":-89.0895,"lo2":-89.0444,"dy":0.0017,"dx":0.0017,"nx":28,"ny":28,"refTime":"2024-08-01T09:00:00:Z","depth":"4","parameterNumber":3,"parameterNumberName":"V-component_of_CURRENTS"},"data":[0,0,0,0,0,0,0,0,0,0,0,0,0,0,0,0,0,0,0,0,0,0,0,0,0,0,0,0,0,0,0,0,0,0,0,0,0,0,0,0,0,0,0,0,0,0,0,0,0,0,0,0,0,0,0,0,0,0,0.0122,0.0122,0,0.0111,0.0111,0.0111,0.01,0.01,0.01,0.01,0.0075,0.0075,0.0074,0,0,0,0,0,0,0,0,0,0,0,0,0,0.0099,0.0099,0.0122,0.0122,0.0122,0.0111,0.0111,0.0111,0.01,0.01,0.01,0.01,0.0076,0.0075,0.0074,0,0,0,0,0,0,0,0,0,0,0,0,0,0.0099,0.0099,0.0122,0.0116,0.0116,0.0111,0.0111,0.0111,0.01,0.01,0.01,0.01,0.0076,0.0075,0.0074,0.0068,0,0,0.0071,0.007,0,0,0,0,0,0,0,0,0.0099,0.01,0.0117,0.0117,0.0116,0.0108,0.0094,0.0096,0.01,0.0105,0.01,0.01,0.0086,0.0084,0.008,0.0067,0.0066,0.0071,0.007,0.007,0.007,0,0,0,0,0,0,0,0.0099,0.01,0.0116,0.0117,0.0117,0.0103,0.0103,0.0094,0.0094,0.0104,0.0104,0.0105,0.0085,0.0081,0.008,0.0065,0.0071,0.007,0.0069,0.0069,0.0043,0.0042,0,0,0,0,0,0,0.0105,0.01,0.0117,0.0116,0.0109,0.0104,0.0104,0.011,0.0095,0.0093,0.0105,0.0105,0.0083,0.0081,0.0079,0.0081,0.007,0.0069,0.0068,0.0043,0.0042,0.0042,0,0,0,0,0,0,0.0105,0.0107,0.0117,0.0109,0.0109,0.0104,0.0111,0.011,0.0109,0.0096,0.0093,0.0107,0.0083,0.008,0.0074,0.0079,0.0068,0.0068,0.0043,0.0043,0.0042,0.0078,0,0,0,0,0,0,0.0104,0.0107,0.0112,0.0109,0.011,0.0119,0.0111,0.0109,0.011,0.011,0.0096,0.0094,0.0083,0.0076,0.0074,0.0078,0.0067,0.0043,0.0043,0.0042,0.0077,0.0079,0.0081,0,0,0,0,0,0.0104,0.0113,0.0112,0.0114,0.0118,0.0119,0.0118,0.0113,0.0111,0.0112,0.0103,0.0094,0.0073,0.0075,0.0072,0.0076,0.0043,0.0043,0.0042,0.0076,0.0079,0.0081,0,0,0,0,0,0,0.0106,0.0113,0.0112,0.0123,0.0123,0.0118,0.0121,0.0117,0.0111,0.0111,0.0096,0.0093,0.0087,0.0076,0.0079,0.0066,0.0055,0.0054,0.0082,0.0084,0.0086,0.01,0.0066,0,0,0,0,0,0.0109,0.012,0.012,0.013,0.0131,0.0126,0.0126,0.0124,0.0119,0.0117,0.0108,0.0095,0.0083,0.008,0.0066,0.0064,0.0043,0.0062,0.0064,0.0066,0.0074,0.0046,0.0046,0.0042,0.0042,0.0042,0,0,0.0112,0.0119,0.0123,0.0131,0.013,0.014,0.0126,0.0131,0.014,0.0115,0.0122,0.0102,0.0082,0.0077,0.0074,0.0071,0.0053,0.0066,0.0068,0.0075,0.0046,0.0046,0.0047,0.0041,0.0041,0.0041,0,0,0.0128,0.013,0.0145,0.0148,0.0153,0.0151,0.0155,0.0153,0.0153,0.0155,0.0135,0.0122,0.0108,0.0094,0.0085,0.009,0.0062,0.0081,0.0107,0.008,0.008,0.008,0.0044,0.0041,0.0085,0.0086,0.0086,0,0.0132,0.0155,0.0148,0.0163,0.0175,0.0159,0.0181,0.0174,0.0171,0.0173,0.0163,0.0139,0.0118,0.0112,0.0109,0.0096,0.0071,0.0102,0.0083,0.0083,0.0083,0.0046,0.0042,0.0087,0.0087,0.0087,0.0087,0,0.0159,0.0178,0.0187,0.0205,0.0212,0.0228,0.0224,0.0228,0.0224,0.0214,0.0208,0.0179,0.0168,0.0151,0.0131,0.0118,0.0097,0.0087,0.0081,0.0086,0.0046,0.0041,0.009,0.0089,0.0089,0.0088,0,0,0.0175,0.0202,0.0209,0.0235,0.0241,0.0258,0.0267,0.0277,0.0291,0.0268,0.0283,0.0243,0.0223,0.0211,0.0181,0.0151,0.0116,0.012,0.0117,0.009,0.0046,0.0038,0.0031,0.0101,0.0101,0.0101,0.0016,0,0.0204,0.0251,0.0255,0.0304,0.033,0.0327,0.0346,0.0347,0.0334,0.0338,0.0298,0.0295,0.0247,0.0247,0.0207,0.0143,0.0106,0.0139,0.0041,0.0038,0.0035,0.0027,0.0099,0.0012,0.0011,0.001,0.001,0,0.0234,0.0268,0.0323,0.0376,0.0389,0.0414,0.0451,0.0464,0.0446,0.0434,0.0408,0.0373,0.0331,0.0293,0.0184,0.0206,0.0131,0.0073,0.0068,0.0048,0.0021,0.0007,0.0,0.0001,0.0002,0.0002,0.0003,0,0.0268,0.0319,0.0374,0.039,0.0437,0.0472,0.0499,0.0497,0.0523,0.0497,0.0503,0.0436,0.0425,0.0318,0.0188,0.0189,0.0058,0.0048,-0.0033,-0.0036,-0.0018,-0.0017,-0.0029,-0.0029,-0.0029,-0.0029,-0.0029,0,0.0305,0.0352,0.0401,0.0437,0.0513,0.0527,0.0598,0.0598,0.0614,0.0641,0.0564,0.0562,0.0431,0.0339,0.0207,0.0068,0.0071,-0.003,-0.0055,-0.0004,-0.0,-0.0023,-0.0021,-0.0032,-0.0031,-0.0031,-0.003,0,0.0337,0.0365,0.0437,0.0506,0.0535,0.0593,0.0681,0.0725,0.0718,0.0751,0.0752,0.0669,0.0547,0.0391,0.0219,0.0113,-0.0034,-0.0087,-0.003,-0.0051,-0.0114,-0.0109,-0.017,-0.0171,-0.0172,-0.0173,-0.0173,0,0.0358,0.0396,0.0493,0.0543,0.0583,0.0673,0.0739,0.0777,0.0816,0.0808,0.0824,0.0732,0.0651,0.0402,0.0226,-0.0019,-0.0055,-0.0136,-0.0118,-0.0109,-0.0127,-0.0121,-0.0116,-0.0175,-0.0175,-0.0175,-0.0175,0,0.0396,0.0431,0.0492,0.0599,0.0683,0.0784,0.0872,0.0908,0.0942,0.0936,0.0889,0.0759,0.0623,0.042,0.0228,0.0047,-0.0086,-0.0145,-0.0144,-0.0127,-0.0115,-0.0131,-0.0124,-0.0178,-0.0177,-0.0177,-0.0177,0,0.0422,0.0468,0.0549,0.0647,0.0753,0.0861,0.091,0.0961,0.1006,0.0979,0.096,0.0796,0.0708,0.0453,0.0265,0.0096,0.006,0.0001,-0.0006,-0.0005,0.0063,0.0105,0.009,0,0,0,0,0,0.044,0.0498,0.0589,0.0701,0.0809,0.0882,0.0982,0.1017,0.104,0.102,0.0994,0.0857,0.0601,0.0485,0.0319,0.0248,0.0024,0.0045,-0.0048,-0.0193,-0.019,-0.0138,0,0,0,0,0,0,0.0452,0.0536,0.059,0.0733,0.0813,0.0948,0.102,0.1039,0.1025,0.1007,0.0878,0.0804,0.0559,0.0697,0.0311,0.0258,0.0174,-0.0076,-0.008,-0.0195,-0.0192,-0.0189,-0.0135,0,0,0,0,0]}]]